Regional Weather Roundup
Issued by NWS State College, PA

Home | Current Version | Previous Version | Text Only | Print | Product List | Glossary On
Versions: 1 2 3 4 5 6 7 8 9 10 11 12 13 14 15 16 17 18 19 20 21 22 23 24 25 26 27 28 29 30 31 32 33 34 35 36 37 38 39 40 41 42 43 44 45 46 47 48 49 50
000
ASUS41 KCTP 191810
RWRCTP

REGIONAL WEATHER ROUNDUP
NATIONAL WEATHER SERVICE STATE COLLEGE PA
200 PM EDT SAT APR 19 2014

Note: "fair" indicates few or no clouds below 12,000 feet with no
significant weather and/or obstructions to visibility.

* = STATION THAT DOES NOT REPORT PRECIPITATION /E.G. RAIN...SNOW...ETC/
    THUNDER OR FOG.

PAZ002>004-007>009-013>016-020>023-029>032-191900-
WESTERN PENNSYLVANIA

CITY           SKY/WX    TMP DP  RH WIND       PRES   REMARKS
ERIE           SUNNY     47  31  53 NE18G24   30.41F
MEADVILLE      NOT AVBL
FRANKLIN*      SUNNY     55  23  28 NE8G17    30.35S
NEW CASTLE     FAIR      56  22  26 NE6       30.35F
BEAVER COUNTY  SUNNY     59  23  25 N14       30.33F
BUTLER*        SUNNY     59  23  25 E10       30.34S
PITTSBURGH INT PTSUNNY   61  27  27 N9        30.30F
PITTSBURGH     SUNNY     62  24  23 N7        30.29F
INDIANA*       SUNNY     59  21  23 E3G16     30.30F
LATROBE        SUNNY     59  28  31 NE16      30.30F
WASHINGTON CO* SUNNY     61  32  33 N5        30.32F
$$

PAZ004>006-010>012-017>019-024>028-033>037-041-042-045-046-049>053-191900-
CENTRAL PENNSYLVANIA

CITY           SKY/WX    TMP DP  RH WIND       PRES   REMARKS
BRADFORD       SUNNY     54  21  27 N10G17    30.32S
DUBOIS         SUNNY     59  19  21 N13G18    30.30S
CLEARFIELD     SUNNY     59  17  19 NE7       30.30F
JOHNSTOWN      MOSUNNY   57  16  20 NW14      30.27F
ALTOONA        MOSUNNY   62  22  21 N8        30.28F
STATE COLLEGE  SUNNY     59  21  23 NE12      30.30R
WILLIAMSPORT   SUNNY     61  26  26 NE10      30.30F
SELINSGROVE    SUNNY     62  26  25 N13       30.31F
FT INDIANTOWN  NOT AVBL
CAPITAL CITY   MOSUNNY   62  20  19 N17       30.29S
HARRISBURG     CLOUDY    65  21  18 NW16G24   30.27S
YORK           MOSUNNY   64  20  18 N10G23    30.27F
$$

PAZ038>040-043-044-047-048-054-055-060>062-067>071-191900-
EASTERN PENNSYLVANIA

CITY           SKY/WX    TMP DP  RH WIND       PRES   REMARKS
SCRANTON       SUNNY     59  27  29 NW13G21   30.29F
MOUNT POCONO   SUNNY     55  22  27 NW10G24   30.26S
ALLENTOWN      SUNNY     63  25  23 NW13G20   30.27F
QUAKERTOWN*    SUNNY     63  23  22 NW7G17    30.27S
READING        SUNNY     64  25  22 NE14G20   30.26F
LANCASTER      SUNNY     63  26  24 N8        30.26S
COATESVILLE    NOT AVBL
POTTSTOWN      SUNNY     63  23  21 N15G22    30.27S
BLUE BELL      SUNNY     66  21  18 N7        30.24S
DOYLESTOWN     SUNNY     64  23  21 N10G17    30.24F
WILLOW GROVE   NOT AVBL
NORTH PHILA    MOSUNNY   66  28  24 MISG      30.26F
PHILADELPHIA   PTSUNNY   67  30  25 NE9       30.25F
$$



USA.gov is the U.S. government's official web portal to all federal, state and local government web resources and services.